Terminal Aerodrome Forecast
Issued by NWS King Salmon, AK

Home | Current Version | Previous Version | Text Only | Print | Product List | Glossary On
Versions: 1 2 3 4 5 6 7 8 9 10 11 12 13 14 15 16 17 18 19 20 21 22 23 24 25
931
FTAK31 PANC 052340
TAFAKN
TAF
PAKN 052340Z 0600/0624 15011KT P6SM VCSH SCT020 BKN040
     FM060600 15010G15KT P6SM SCT020 OVC060
     FM061000 16007KT 3SM -SNRA BKN010
     FM061500 16005KT P6SM SCT010 BKN020
     FM061800 VRB05KT P6SM SCT050=

USA.gov is the U.S. government's official web portal to all federal, state and local government web resources and services.